Tracking 19242 objects as of 19-Sep-2018
HD Live streaming from Space Station
objects crossing your sky now

EXPLORER 22

Track EXPLORER 22 now!
10-day predictions
EXPLORER 22 is classified as:


NORAD ID: 899
Int'l Code: 1964-064A
Perigee: 875.8 km
Apogee: 1,051.5 km
Inclination: 79.7 °
Period: 104.2 minutes
Semi major axis: 7334 km
RCS: 1.5662 m2 (large)
Launch date: October 10, 1964
Source: United States (US)
Launch site: AIR FORCE WESTERN TEST RANGE (AFWTR)
aabbcc
Your satellite tracking list
Your tracking list is empty




NASA's NSSDC Master Catalog

Two Line Element Set (TLE):
1 00899U 64064A   18261.52766873  .00000054  00000-0  42634-4 0  9990
2 00899  79.6933 339.0292 0119776 270.3271  88.4155 13.82070044714547
Source of the keplerian elements: AFSPC